Weather Roundup
Issued by NWS

Home | Current Version | Previous Version | Graphics & Text | Print | Product List | Glossary On
Versions: 1 2 3 4 5 6 7 8 9 10 11 12 13 14 15 16 17 18 19 20 21 22 23 24 25 26 27 28 29 30 31 32 33 34 35 36 37 38 39 40 41 42 43 44 45 46 47 48 49 50
823
NZUS93 KARX 090610
HRRWXR

CURRENT HOURLY OBSERVATIONS ACROSS
MUCH OF THE UPPER MISSISSIPPI VALLEY
NATIONAL WEATHER SERVICE LA CROSSE WI
1200 AM CST FRI DEC 09 2016


...SOUTHEAST MINNESOTA...


CITY           SKY/WX    TMP DP  RH WIND       PRES   REMARKS
ROCHESTER      FLURRIES  15  12  88 NW13      30.47R WCI   1
ROCHESTER/MAYO CLOUDY    16  13  86 W16       30.48S WCI   1
WINONA         FLURRIES  23  16  74 W9        30.50R WCI  13
AUSTIN         FLURRIES  14  10  85 NW10      30.49S WCI   1
ALBERT LEA     FLURRIES  18  14  86 NW7       30.50F WCI   8
DODGE CENTER   MOCLDY    14  10  85 W12       30.48S WCI   0
PRESTON        FLURRIES  15  12  85 NW12      30.47S WCI   2
OWATONNA       LGT SNOW  14   9  79 W10G17    30.51R WCI   1
FARIBAULT      CLOUDY    16  10  79 W10       30.52R WCI   3
$$

...ELSEWHERE IN MINNESOTA...


CITY           SKY/WX    TMP DP  RH WIND       PRES   REMARKS
MINNEAPOLIS    CLOUDY    18  10  71 NW10      30.52R WCI   6
INTNL FALLS    CLOUDY     8   4  83 NW5       30.44S WCI   0
DULUTH         FLURRIES  12   6  77 NW10      30.40R WCI  -1
RED WING       CLOUDY    21  12  68 NW3       30.49S
REDWOOD FALLS  PTCLDY     8   2  76 NW13      30.58S WCI  -8
MANKATO        NOT AVBL
WORTHINGTON    CLEAR      6   2  83 NW9       30.55S WCI  -8
FAIRMONT       FLURRIES  12   7  80 NW15      30.56S WCI  -4
$$

...SOUTHWEST WISCONSIN...


CITY           SKY/WX    TMP DP  RH WIND       PRES   REMARKS
LA CROSSE      CLOUDY    24  15  68 W10       30.47S WCI  14
PRAIRIE DU CHI FLURRIES  21  13  72 NW9       30.50S WCI  11
BOSCOBEL       CLOUDY    23  16  74 W8        30.48R WCI  14
LONE ROCK      FLURRIES  23  16  74 W13       30.45R WCI  11
PLATTEVILLE    CLOUDY    21  17  84 W9        30.45S WCI  10
FORT MC COY    FLURRIES  22  18  84 W7        30.45S WCI  14
CAMP DOUGLAS   FLURRIES  22  18  83 W9        30.41S WCI  12
MAUSTON-NEW LI FLURRIES  23  18  81 W9G16     30.41S WCI  13
VIROQUA        CLOUDY    20  16  83 NW8       30.42R WCI  10
WIS DELLS      CLOUDY    22  17  80 W7        30.40S WCI  14
$$

...ELSEWHERE IN WISCONSIN...


CITY           SKY/WX    TMP DP  RH WIND       PRES   REMARKS
MILWAUKEE      PTCLDY    24  15  68 NW10      30.37R WCI  14
MADISON        CLOUDY    22  16  78 W9        30.40R WCI  12
GREEN BAY      CLEAR     23  17  78 W9        30.35R WCI  13
EAU CLAIRE     MOCLDY    20  12  71 NW8       30.45R WCI  10
BLACK RVR FLS  FLURRIES  22  17  78 W3        30.44R
MEDFORD        CLOUDY    19  12  76 NW7       30.35R WCI   9
WAUSAU         CLEAR     16  12  84 W9        30.34R WCI   4
WIS RAPIDS     CLEAR     19  13  77 NW6       30.40R WCI  11
MARSHFIELD     CLEAR     17   9  70 NW8       30.36R WCI   7
RICE LAKE      CLEAR     16  11  78 W7        30.45S WCI   7
$$

...NORTHEAST IOWA...


CITY           SKY/WX    TMP DP  RH WIND       PRES   REMARKS
WATERLOO       CLOUDY    17   9  70 NW10      30.53S WCI   5
DUBUQUE        CLOUDY    18  12  77 W14       30.46S WCI   4
DECORAH        CLOUDY    18  14  86 NW9G15    30.46S WCI   6
MASON CITY     CLOUDY    14   8  77 NW14      30.54S WCI  -1
CHARLES CITY   CLOUDY    16  10  79 NW12      30.51S WCI   3
OELWEIN        CLOUDY    16  12  86 W14       30.50S WCI   1
$$

...ELSEWHERE IN IOWA...


CITY           SKY/WX    TMP DP  RH WIND       PRES   REMARKS
DES MOINES     PTCLDY    16   8  71 NW13      30.59S WCI   2
IOWA CITY      CLOUDY    21  12  68 NW14G21   30.55F WCI   8
FORT DODGE     CLOUDY    12   5  73 NW9       30.58S WCI   0
MARSHALLTOWN   CLOUDY    18  12  77 NW14      30.55R WCI   4
CEDAR RAPIDS   CLOUDY    19  14  81 NW13      30.52R WCI   6
$$

...NORTHERN ILLINOIS...


CITY           SKY/WX    TMP DP  RH WIND       PRES   REMARKS
CHICAGO-OHARE  PTCLDY    22  16  78 W12       30.41R WCI  10
CHICAGO-MIDWAY PTCLDY    23  15  71 W10       30.42S WCI  12
MOLINE         CLOUDY    23  11  60 W14G20    30.52R WCI  11
ROCKFORD       CLOUDY    22  16  78 W10       30.46R WCI  11
PEORIA         CLOUDY    22  15  75 NW7       30.52S WCI  13
$$

NOTE: "FAIR" INDICATES FEW OR NO CLOUDS BELOW 12,000 FEET WITH NO
SIGNIFICANT WEATHER AND/OR OBSTRUCTIONS TO VISIBILITY. WIND
SPEEDS ARE IN MILES-PER-HOUR.




USA.gov is the U.S. government's official web portal to all federal, state and local government web resources and services.